Terug naar catalogus

NOAA 16 DEB

ActiefSSO
NORAD 41374·DEBRIS·🇺🇸 United States

Gelanceerd Sep 21, 2000 vanaf Vandenberg Space Force Base

Loading…

Volgende Passages (komende 24 uur)

TLE

VersSource: Space-Track

Epoch: Sep 14, 2026, 08:57 UTC

1 41374U 00055JT  26257.37354406  .00001698  00000-0  81038-3 0  9990
2 41374  98.7109 305.3177 0030762 267.1199  92.6456 14.20297750548123

Volg NOAA 16 DEB in realtime met AllMySat

Download on the App Store